owner,sensor,date,latitude,longitude,vertical_datum,wind_speed,wind_to_direction,wind_speed_of_gust,qcFlag 
TABS,ioos:station:wmo:42044:1,2010-07-01T00:00:00Z,26.1914,-97.0507,0.0,15.34596364,86.07623682,21.64,'11111222,11111222,11111222' 
TABS,ioos:station:wmo:42044:1,2010-07-01T00:30:00Z,26.1914,-97.0507,0.0,13.84029263,89.62699704,19.48,'11111222,11111222,11111222' 
TABS,ioos:station:wmo:42044:1,2010-07-01T01:00:00Z,26.1914,-97.0507,0.0,12.42241925,98.9850156,16.57,'11111222,11111222,11111222' 
TABS,ioos:station:wmo:42044:1,2010-07-01T01:30:00Z,26.1914,-97.0507,0.0,14.04172354,105.3628661,20.81,'11111222,11111222,11111222' 
TABS,ioos:station:wmo:42044:1,2010-07-01T02:00:00Z,26.1914,-97.0507,0.0,13.07388236,98.79987338,18.6,'11111222,11111222,11111222' 
TABS,ioos:station:wmo:42044:1,2010-07-01T02:30:00Z,26.1914,-97.0507,0.0,13.68304425,105.4281139,18.66,'11111222,11111222,11111222' 
TABS,ioos:station:wmo:42044:1,2010-07-01T03:00:00Z,26.1914,-97.0507,0.0,13.32537804,115.3731249,17.99,'11111222,11111222,11111222' 
TABS,ioos:station:wmo:42044:1,2010-07-01T03:30:00Z,26.1914,-97.0507,0.0,13.78384924,112.6586027,21.58,'11111222,11111222,11111222' 
TABS,ioos:station:wmo:42044:1,2010-07-01T04:00:00Z,26.1914,-97.0507,0.0,14.14865365,121.0613339,18.91,'11111222,11111222,11111222' 
TABS,ioos:station:wmo:42044:1,2010-07-01T04:30:00Z,26.1914,-97.0507,0.0,12.5931132,132.3291001,17.33,'11111222,11111222,11111222' 
TABS,ioos:station:wmo:42044:1,2010-07-01T05:00:00Z,26.1914,-97.0507,0.0,12.59733702,121.5959307,16.62,'11111222,11111222,11111222' 
TABS,ioos:station:wmo:42044:1,2010-07-01T05:30:00Z,26.1914,-97.0507,0.0,10.57034531,105.4171408,14.34,'11111222,11111222,11111222' 
TABS,ioos:station:wmo:42044:1,2010-07-01T06:00:00Z,26.1914,-97.0507,0.0,9.983331107,111.3221954,18.08,'11111222,11111222,11111222' 
TABS,ioos:station:wmo:42044:1,2010-07-01T06:30:00Z,26.1914,-97.0507,0.0,11.94260441,111.258329,15.87,'11111222,11111222,11111222' 
TABS,ioos:station:wmo:42044:1,2010-07-01T07:00:00Z,26.1914,-97.0507,0.0,12.20290539,110.2321895,15.89,'11111222,11111222,11111222' 
TABS,ioos:station:wmo:42044:1,2010-07-01T07:30:00Z,26.1914,-97.0507,0.0,11.34119923,103.6690426,15.52,'11111222,11111222,11111222' 
TABS,ioos:station:wmo:42044:1,2010-07-01T08:00:00Z,26.1914,-97.0507,0.0,10.63530912,103.7622417,13.39,'11111222,11111222,11111222' 
TABS,ioos:station:wmo:42044:1,2010-07-01T08:30:00Z,26.1914,-97.0507,0.0,11.13079063,111.4481071,15.62,'11111222,11111222,11111222' 
TABS,ioos:station:wmo:42044:1,2010-07-01T09:00:00Z,26.1914,-97.0507,0.0,10.41815723,107.4265822,15.46,'11111222,11111222,11111222' 
TABS,ioos:station:wmo:42044:1,2010-07-01T09:30:00Z,26.1914,-97.0507,0.0,10.50672166,112.0245609,13.61,'11111222,11111222,11111222' 
TABS,ioos:station:wmo:42044:1,2010-07-01T10:00:00Z,26.1914,-97.0507,0.0,9.937026718,104.5121032,14.45,'11111222,11111222,11111222' 
TABS,ioos:station:wmo:42044:1,2010-07-01T10:30:00Z,26.1914,-97.0507,0.0,10.02126738,105.215388,13.83,'11111222,11111222,11111222' 
TABS,ioos:station:wmo:42044:1,2010-07-01T11:00:00Z,26.1914,-97.0507,0.0,9.638972974,107.9465961,13.63,'11111222,11111222,11111222' 
TABS,ioos:station:wmo:42044:1,2010-07-01T11:30:00Z,26.1914,-97.0507,0.0,9.340519258,105.971057,12.6,'11111222,11111222,11111222' 
TABS,ioos:station:wmo:42044:1,2010-07-01T12:00:00Z,26.1914,-97.0507,0.0,9.261069053,98.88296947,13.56,'11111222,11111222,11111222' 
TABS,ioos:station:wmo:42044:1,2010-07-01T12:30:00Z,26.1914,-97.0507,0.0,9.422510281,104.0661274,13.35,'11111222,11111222,11111222' 
TABS,ioos:station:wmo:42044:1,2010-07-01T13:00:00Z,26.1914,-97.0507,0.0,8.959397301,104.3468378,11.59,'11111222,11111222,11111222' 
TABS,ioos:station:wmo:42044:1,2010-07-01T13:30:00Z,26.1914,-97.0507,0.0,9.08459135,105.1227473,12.11,'11111222,11111222,11111222' 
TABS,ioos:station:wmo:42044:1,2010-07-01T14:00:00Z,26.1914,-97.0507,0.0,9.534280256,108.5303442,12.88,'11111222,11111222,11111222' 
TABS,ioos:station:wmo:42044:1,2010-07-01T14:30:00Z,26.1914,-97.0507,0.0,8.927580859,105.3286784,11.46,'11111222,11111222,11111222' 
TABS,ioos:station:wmo:42044:1,2010-07-01T15:00:00Z,26.1914,-97.0507,0.0,8.595184698,108.7304451,11.15,'11111222,11111222,11111222' 
TABS,ioos:station:wmo:42044:1,2010-07-01T15:30:00Z,26.1914,-97.0507,0.0,8.791547077,112.5400221,11.22,'11111222,11111222,11111222' 
TABS,ioos:station:wmo:42044:1,2010-07-01T16:00:00Z,26.1914,-97.0507,0.0,8.160741388,113.392554,11.86,'11111222,11111222,11111222' 
TABS,ioos:station:wmo:42044:1,2010-07-01T16:30:00Z,26.1914,-97.0507,0.0,7.777049569,102.2495157,10.88,'11111222,11111222,11111222' 
TABS,ioos:station:wmo:42044:1,2010-07-01T17:00:00Z,26.1914,-97.0507,0.0,8.21454807,105.3900867,10.35,'11111222,11111222,11111222' 
TABS,ioos:station:wmo:42044:1,2010-07-01T17:30:00Z,26.1914,-97.0507,0.0,8.41166452,106.862731,10.89,'11111222,11111222,11111222' 
TABS,ioos:station:wmo:42044:1,2010-07-01T18:00:00Z,26.1914,-97.0507,0.0,8.231190679,101.7062162,10.85,'11111222,11111222,11111222' 
TABS,ioos:station:wmo:42044:1,2010-07-01T18:30:00Z,26.1914,-97.0507,0.0,8.140669506,103.0635869,10.78,'11111222,11111222,11111222' 
TABS,ioos:station:wmo:42044:1,2010-07-01T19:00:00Z,26.1914,-97.0507,0.0,8.210054811,102.0220375,11.11,'11111222,11111222,11111222' 
TABS,ioos:station:wmo:42044:1,2010-07-01T19:30:00Z,26.1914,-97.0507,0.0,8.226572798,99.65736972,10.74,'11111222,11111222,11111222' 
TABS,ioos:station:wmo:42044:1,2010-07-01T20:00:00Z,26.1914,-97.0507,0.0,7.874649199,100.6111122,10.53,'11111222,11111222,11111222' 
TABS,ioos:station:wmo:42044:1,2010-07-01T20:30:00Z,26.1914,-97.0507,0.0,8.515779471,103.5144413,10.8,'11111222,11111222,11111222' 
TABS,ioos:station:wmo:42044:1,2010-07-01T21:00:00Z,26.1914,-97.0507,0.0,8.660588895,105.8821682,12.15,'11111222,11111222,11111222' 
TABS,ioos:station:wmo:42044:1,2010-07-01T21:30:00Z,26.1914,-97.0507,0.0,8.607653571,109.9721069,11.26,'11111222,11111222,11111222' 
TABS,ioos:station:wmo:42044:1,2010-07-01T22:00:00Z,26.1914,-97.0507,0.0,8.97677559,111.3632404,11.59,'11111222,11111222,11111222' 
TABS,ioos:station:wmo:42044:1,2010-07-01T22:30:00Z,26.1914,-97.0507,0.0,8.944953885,111.7185182,11.63,'11111222,11111222,11111222' 
TABS,ioos:station:wmo:42044:1,2010-07-01T23:00:00Z,26.1914,-97.0507,0.0,8.804345518,111.1733774,11.93,'11111222,11111222,11111222' 
TABS,ioos:station:wmo:42044:1,2010-07-01T23:30:00Z,26.1914,-97.0507,0.0,9.257348432,116.703805,11.95,'11111222,11111222,11111222' 
TABS,ioos:station:wmo:42044:1,2010-07-02T00:00:00Z,26.1914,-97.0507,0.0,9.177717581,112.4857702,12.56,'11111222,11111222,11111222' 
TABS,ioos:station:wmo:42044:1,2010-07-02T00:30:00Z,26.1914,-97.0507,0.0,8.99382566,116.0525835,11.76,'11111222,11111222,11111222' 
TABS,ioos:station:wmo:42044:1,2010-07-02T01:00:00Z,26.1914,-97.0507,0.0,9.03580655,114.3813448,11.94,'11111222,11111222,11111222' 
TABS,ioos:station:wmo:42044:1,2010-07-02T01:30:00Z,26.1914,-97.0507,0.0,8.800920406,114.7891443,11.47,'11111222,11111222,11111222' 
TABS,ioos:station:wmo:42044:1,2010-07-02T02:00:00Z,26.1914,-97.0507,0.0,8.900252805,115.8456533,11.46,'11111222,11111222,11111222' 
TABS,ioos:station:wmo:42044:1,2010-07-02T02:30:00Z,26.1914,-97.0507,0.0,9.038545237,116.0551208,11.38,'11111222,11111222,11111222' 
TABS,ioos:station:wmo:42044:1,2010-07-02T03:00:00Z,26.1914,-97.0507,0.0,9.347432803,117.2507319,11.66,'11111222,11111222,11111222' 
TABS,ioos:station:wmo:42044:1,2010-07-02T03:30:00Z,26.1914,-97.0507,0.0,9.072182758,123.9006037,11.53,'11111222,11111222,11111222' 
TABS,ioos:station:wmo:42044:1,2010-07-02T04:00:00Z,26.1914,-97.0507,0.0,9.02811719,118.9501669,11.57,'11111222,11111222,11111222' 
TABS,ioos:station:wmo:42044:1,2010-07-02T04:30:00Z,26.1914,-97.0507,0.0,8.899264015,121.3505605,12.01,'11111222,11111222,11111222' 
TABS,ioos:station:wmo:42044:1,2010-07-02T05:00:00Z,26.1914,-97.0507,0.0,8.866769423,120.4986574,11.45,'11111222,11111222,11111222' 
TABS,ioos:station:wmo:42044:1,2010-07-02T05:30:00Z,26.1914,-97.0507,0.0,9.084850026,117.7500846,11.6,'11111222,11111222,11111222' 
TABS,ioos:station:wmo:42044:1,2010-07-02T06:00:00Z,26.1914,-97.0507,0.0,9.126472484,118.1097714,12.44,'11111222,11111222,11111222' 
TABS,ioos:station:wmo:42044:1,2010-07-02T06:30:00Z,26.1914,-97.0507,0.0,9.377830239,125.2326122,11.68,'11111222,11111222,11111222' 
TABS,ioos:station:wmo:42044:1,2010-07-02T07:00:00Z,26.1914,-97.0507,0.0,9.249870269,125.7180315,11.86,'11111222,11111222,11111222' 
TABS,ioos:station:wmo:42044:1,2010-07-02T07:30:00Z,26.1914,-97.0507,0.0,8.53424279,124.0628168,11.74,'11111222,11111222,11111222' 
TABS,ioos:station:wmo:42044:1,2010-07-02T08:00:00Z,26.1914,-97.0507,0.0,8.631251358,116.713844,11.11,'11111222,11111222,11111222' 
TABS,ioos:station:wmo:42044:1,2010-07-02T08:30:00Z,26.1914,-97.0507,0.0,9.17405581,120.3107338,11.71,'11111222,11111222,11111222' 
TABS,ioos:station:wmo:42044:1,2010-07-02T09:00:00Z,26.1914,-97.0507,0.0,8.813920807,119.6484768,11.26,'11111222,11111222,11111222' 
TABS,ioos:station:wmo:42044:1,2010-07-02T09:30:00Z,26.1914,-97.0507,0.0,8.964223335,117.7946189,11.8,'11111222,11111222,11111222' 
TABS,ioos:station:wmo:42044:1,2010-07-02T10:00:00Z,26.1914,-97.0507,0.0,8.961724164,112.989084,11.36,'11111222,11111222,11111222' 
TABS,ioos:station:wmo:42044:1,2010-07-02T10:30:00Z,26.1914,-97.0507,0.0,9.413872742,110.9767068,11.93,'11111222,11111222,11111222' 
TABS,ioos:station:wmo:42044:1,2010-07-02T11:00:00Z,26.1914,-97.0507,0.0,9.338763301,111.4827773,12.75,'11111222,11111222,11111222' 
TABS,ioos:station:wmo:42044:1,2010-07-02T11:30:00Z,26.1914,-97.0507,0.0,9.248464737,112.5725779,12.06,'11111222,11111222,11111222' 
TABS,ioos:station:wmo:42044:1,2010-07-02T12:00:00Z,26.1914,-97.0507,0.0,9.591647408,115.0425169,12.37,'11111222,11111222,11111222' 
TABS,ioos:station:wmo:42044:1,2010-07-02T12:30:00Z,26.1914,-97.0507,0.0,10.18949459,114.528084,13.02,'11111222,11111222,11111222' 
TABS,ioos:station:wmo:42044:1,2010-07-02T13:00:00Z,26.1914,-97.0507,0.0,9.601520713,121.8033167,12.69,'11111222,11111222,11111222' 
TABS,ioos:station:wmo:42044:1,2010-07-02T13:30:00Z,26.1914,-97.0507,0.0,9.503078449,120.4781222,11.78,'11111222,11111222,11111222' 
TABS,ioos:station:wmo:42044:1,2010-07-02T14:00:00Z,26.1914,-97.0507,0.0,8.341133017,121.9183551,10.78,'11111222,11111222,11111222' 
TABS,ioos:station:wmo:42044:1,2010-07-02T14:30:00Z,26.1914,-97.0507,0.0,8.193711003,122.8952266,11.34,'11111222,11111222,11111222' 
TABS,ioos:station:wmo:42044:1,2010-07-02T15:00:00Z,26.1914,-97.0507,0.0,8.987218702,127.81381,11.29,'11111222,11111222,11111222' 
TABS,ioos:station:wmo:42044:1,2010-07-02T15:30:00Z,26.1914,-97.0507,0.0,8.820090702,132.335187,12.24,'11111222,11111222,11111222' 
TABS,ioos:station:wmo:42044:1,2010-07-02T16:00:00Z,26.1914,-97.0507,0.0,8.914757428,130.5876784,11.31,'11111222,11111222,11111222' 
TABS,ioos:station:wmo:42044:1,2010-07-02T16:30:00Z,26.1914,-97.0507,0.0,9.01608008,135.5844863,11.53,'11111222,11111222,11111222' 
TABS,ioos:station:wmo:42044:1,2010-07-02T17:00:00Z,26.1914,-97.0507,0.0,9.204618406,140.3780396,11.9,'11111222,11111222,11111222' 
TABS,ioos:station:wmo:42044:1,2010-07-02T17:30:00Z,26.1914,-97.0507,0.0,9.296235797,138.6636345,12.22,'11111222,11111222,11111222' 
TABS,ioos:station:wmo:42044:1,2010-07-02T18:00:00Z,26.1914,-97.0507,0.0,9.324639403,137.9126176,12.32,'11111222,11111222,11111222' 
TABS,ioos:station:wmo:42044:1,2010-07-02T18:30:00Z,26.1914,-97.0507,0.0,9.511761141,137.3862541,12.48,'11111222,11111222,11111222' 
TABS,ioos:station:wmo:42044:1,2010-07-02T19:00:00Z,26.1914,-97.0507,0.0,9.414552565,140.171356,12.36,'11111222,11111222,11111222' 
TABS,ioos:station:wmo:42044:1,2010-07-02T19:30:00Z,26.1914,-97.0507,0.0,9.43586774,136.4603084,11.65,'11111222,11111222,11111222' 
TABS,ioos:station:wmo:42044:1,2010-07-02T20:00:00Z,26.1914,-97.0507,0.0,9.568787802,133.9417583,12.67,'11111222,11111222,11111222' 
TABS,ioos:station:wmo:42044:1,2010-07-02T20:30:00Z,26.1914,-97.0507,0.0,8.933106962,132.3689285,11.93,'11111222,11111222,11111222' 
TABS,ioos:station:wmo:42044:1,2010-07-02T21:00:00Z,26.1914,-97.0507,0.0,9.458038909,133.3294879,12.06,'11111222,11111222,11111222' 
TABS,ioos:station:wmo:42044:1,2010-07-02T21:30:00Z,26.1914,-97.0507,0.0,9.046551829,133.6118737,11.61,'11111222,11111222,11111222' 
TABS,ioos:station:wmo:42044:1,2010-07-02T22:00:00Z,26.1914,-97.0507,0.0,8.536609397,133.8137487,11.15,'11111222,11111222,11111222' 
TABS,ioos:station:wmo:42044:1,2010-07-02T22:30:00Z,26.1914,-97.0507,0.0,8.994676203,131.755532,11.17,'11111222,11111222,11111222' 
TABS,ioos:station:wmo:42044:1,2010-07-02T23:00:00Z,26.1914,-97.0507,0.0,8.941884589,130.6919703,12.0,'11111222,11111222,11111222' 
TABS,ioos:station:wmo:42044:1,2010-07-02T23:30:00Z,26.1914,-97.0507,0.0,8.778000911,126.8963411,11.39,'11111222,11111222,11111222' 
TABS,ioos:station:wmo:42044:1,2010-07-03T00:00:00Z,26.1914,-97.0507,0.0,9.250135134,127.1799355,11.13,'11111222,11111222,11111222' 
TABS,ioos:station:wmo:42044:1,2010-07-03T00:30:00Z,26.1914,-97.0507,0.0,9.581883948,128.0064271,12.06,'11111222,11111222,11111222' 
TABS,ioos:station:wmo:42044:1,2010-07-03T01:00:00Z,26.1914,-97.0507,0.0,8.698235453,127.2918069,11.56,'11111222,11111222,11111222' 
TABS,ioos:station:wmo:42044:1,2010-07-03T01:30:00Z,26.1914,-97.0507,0.0,8.904027179,129.3033184,10.97,'11111222,11111222,11111222' 
TABS,ioos:station:wmo:42044:1,2010-07-03T02:00:00Z,26.1914,-97.0507,0.0,8.800465897,131.3148662,11.16,'11111222,11111222,11111222' 
TABS,ioos:station:wmo:42044:1,2010-07-03T02:30:00Z,26.1914,-97.0507,0.0,8.796590248,134.63186,10.85,'11111222,11111222,11111222' 
TABS,ioos:station:wmo:42044:1,2010-07-03T03:00:00Z,26.1914,-97.0507,0.0,8.518227515,131.1925773,11.0,'11111222,11111222,11111222' 
TABS,ioos:station:wmo:42044:1,2010-07-03T03:30:00Z,26.1914,-97.0507,0.0,8.680472337,130.6087799,11.21,'11111222,11111222,11111222' 
TABS,ioos:station:wmo:42044:1,2010-07-03T04:00:00Z,26.1914,-97.0507,0.0,8.733893748,131.6120713,11.18,'11111222,11111222,11111222' 
TABS,ioos:station:wmo:42044:1,2010-07-03T04:30:00Z,26.1914,-97.0507,0.0,8.593584817,131.4622201,11.31,'11111222,11111222,11111222' 
TABS,ioos:station:wmo:42044:1,2010-07-03T05:00:00Z,26.1914,-97.0507,0.0,8.911593572,137.5925501,11.17,'11111222,11111222,11111222' 
TABS,ioos:station:wmo:42044:1,2010-07-03T05:30:00Z,26.1914,-97.0507,0.0,8.302198504,137.4898628,10.95,'11111222,11111222,11111222' 
TABS,ioos:station:wmo:42044:1,2010-07-03T06:00:00Z,26.1914,-97.0507,0.0,8.629745072,140.4072524,11.35,'11111222,11111222,11111222' 
TABS,ioos:station:wmo:42044:1,2010-07-03T06:30:00Z,26.1914,-97.0507,0.0,8.252078526,142.8804438,10.53,'11111222,11111222,11111222' 
TABS,ioos:station:wmo:42044:1,2010-07-03T07:00:00Z,26.1914,-97.0507,0.0,8.783723584,138.4155215,11.13,'11111222,11111222,11111222' 
TABS,ioos:station:wmo:42044:1,2010-07-03T07:30:00Z,26.1914,-97.0507,0.0,8.506497517,134.9526884,10.98,'11111222,11111222,11111222' 
TABS,ioos:station:wmo:42044:1,2010-07-03T08:00:00Z,26.1914,-97.0507,0.0,8.7,136.3974934,10.73,'11111222,11111222,11111222' 
TABS,ioos:station:wmo:42044:1,2010-07-03T08:30:00Z,26.1914,-97.0507,0.0,8.16289777,137.8304936,10.38,'11111222,11111222,11111222' 
TABS,ioos:station:wmo:42044:1,2010-07-03T09:00:00Z,26.1914,-97.0507,0.0,8.900573015,140.9283008,11.64,'11111222,11111222,11111222' 
TABS,ioos:station:wmo:42044:1,2010-07-03T09:30:00Z,26.1914,-97.0507,0.0,8.479964623,145.2794986,10.57,'11111222,11111222,11111222' 
TABS,ioos:station:wmo:42044:1,2010-07-03T10:00:00Z,26.1914,-97.0507,0.0,8.392806444,141.19123,10.92,'11111222,11111222,11111222' 
TABS,ioos:station:wmo:42044:1,2010-07-03T10:30:00Z,26.1914,-97.0507,0.0,8.736005952,137.7839733,10.76,'11111222,11111222,11111222' 
TABS,ioos:station:wmo:42044:1,2010-07-03T11:00:00Z,26.1914,-97.0507,0.0,9.41803058,142.9843922,11.57,'11111222,11111222,11111222' 
TABS,ioos:station:wmo:42044:1,2010-07-03T11:30:00Z,26.1914,-97.0507,0.0,9.448708907,140.9711539,11.81,'11111222,11111222,11111222' 
TABS,ioos:station:wmo:42044:1,2010-07-03T12:00:00Z,26.1914,-97.0507,0.0,8.891372223,140.7970406,11.05,'11111222,11111222,11111222' 
TABS,ioos:station:wmo:42044:1,2010-07-03T12:30:00Z,26.1914,-97.0507,0.0,9.061418211,133.4352503,11.3,'11111222,11111222,11111222' 
TABS,ioos:station:wmo:42044:1,2010-07-03T13:00:00Z,26.1914,-97.0507,0.0,8.704395441,130.3874323,11.23,'11111222,11111222,11111222' 
TABS,ioos:station:wmo:42044:1,2010-07-03T13:30:00Z,26.1914,-97.0507,0.0,8.725743521,134.814593,10.97,'11111222,11111222,11111222' 
TABS,ioos:station:wmo:42044:1,2010-07-03T14:00:00Z,26.1914,-97.0507,0.0,8.68834852,133.0414562,10.83,'11111222,11111222,11111222' 
TABS,ioos:station:wmo:42044:1,2010-07-03T14:30:00Z,26.1914,-97.0507,0.0,8.769503977,136.0167447,10.88,'11111222,11111222,11111222' 
TABS,ioos:station:wmo:42044:1,2010-07-03T15:00:00Z,26.1914,-97.0507,0.0,7.935319779,130.6564415,9.98,'11111222,11111222,11111222' 
TABS,ioos:station:wmo:42044:1,2010-07-03T15:30:00Z,26.1914,-97.0507,0.0,8.16548835,131.027829,9.96,'11111222,11111222,11111222' 
TABS,ioos:station:wmo:42044:1,2010-07-03T16:00:00Z,26.1914,-97.0507,0.0,8.045079241,131.0187583,10.29,'11111222,11111222,11111222' 
TABS,ioos:station:wmo:42044:1,2010-07-03T16:30:00Z,26.1914,-97.0507,0.0,7.74847727,126.2342975,9.77,'11111222,11111222,11111222' 
TABS,ioos:station:wmo:42044:1,2010-07-03T17:00:00Z,26.1914,-97.0507,0.0,7.698844069,127.7186639,9.66,'11111222,11111222,11111222' 
TABS,ioos:station:wmo:42044:1,2010-07-03T17:30:00Z,26.1914,-97.0507,0.0,7.990025031,127.0136504,10.26,'11111222,11111222,11111222' 
TABS,ioos:station:wmo:42044:1,2010-07-03T18:00:00Z,26.1914,-97.0507,0.0,8.271886121,124.7086355,10.64,'11111222,11111222,11111222' 
TABS,ioos:station:wmo:42044:1,2010-07-03T18:30:00Z,26.1914,-97.0507,0.0,8.09452284,127.5214521,10.16,'11111222,11111222,11111222' 
TABS,ioos:station:wmo:42044:1,2010-07-03T19:00:00Z,26.1914,-97.0507,0.0,8.263292322,131.1732043,10.67,'11111222,11111222,11111222' 
TABS,ioos:station:wmo:42044:1,2010-07-03T19:30:00Z,26.1914,-97.0507,0.0,8.388968947,133.551325,10.36,'11111222,11111222,11111222' 
TABS,ioos:station:wmo:42044:1,2010-07-03T20:00:00Z,26.1914,-97.0507,0.0,8.231706992,135.8862602,10.16,'11111222,11111222,11111222' 
TABS,ioos:station:wmo:42044:1,2010-07-03T20:30:00Z,26.1914,-97.0507,0.0,8.670790045,136.1217838,10.87,'11111222,11111222,11111222' 
TABS,ioos:station:wmo:42044:1,2010-07-03T21:00:00Z,26.1914,-97.0507,0.0,8.14617088,132.5626159,11.43,'11111222,11111222,11111222' 
TABS,ioos:station:wmo:42044:1,2010-07-03T21:30:00Z,26.1914,-97.0507,0.0,7.83536853,135.7242294,10.15,'11111222,11111222,11111222' 
TABS,ioos:station:wmo:42044:1,2010-07-03T22:00:00Z,26.1914,-97.0507,0.0,8.785556328,136.5684039,10.69,'11111222,11111222,11111222' 
TABS,ioos:station:wmo:42044:1,2010-07-03T22:30:00Z,26.1914,-97.0507,0.0,7.83368368,138.3121029,10.06,'11111222,11111222,11111222' 
TABS,ioos:station:wmo:42044:1,2010-07-03T23:00:00Z,26.1914,-97.0507,0.0,8.20321888,135.7905503,10.31,'11111222,11111222,11111222' 
TABS,ioos:station:wmo:42044:1,2010-07-03T23:30:00Z,26.1914,-97.0507,0.0,7.983764776,135.6600238,9.78,'11111222,11111222,11111222' 
TABS,ioos:station:wmo:42044:1,2010-07-04T00:00:00Z,26.1914,-97.0507,0.0,8.208879339,129.2160722,10.46,'11111222,11111222,11111222' 
TABS,ioos:station:wmo:42044:1,2010-07-04T00:30:00Z,26.1914,-97.0507,0.0,8.024213357,128.7270468,10.11,'11111222,11111222,11111222' 
TABS,ioos:station:wmo:42044:1,2010-07-04T01:00:00Z,26.1914,-97.0507,0.0,7.815478232,127.9846219,10.19,'11111222,11111222,11111222' 
TABS,ioos:station:wmo:42044:1,2010-07-04T01:30:00Z,26.1914,-97.0507,0.0,7.933649854,121.2861265,9.66,'11111222,11111222,11111222' 
TABS,ioos:station:wmo:42044:1,2010-07-04T02:00:00Z,26.1914,-97.0507,0.0,7.405133355,119.2653808,9.39,'11111222,11111222,11111222' 
TABS,ioos:station:wmo:42044:1,2010-07-04T02:30:00Z,26.1914,-97.0507,0.0,7.949421363,117.9838081,10.04,'11111222,11111222,11111222' 
TABS,ioos:station:wmo:42044:1,2010-07-04T03:00:00Z,26.1914,-97.0507,0.0,8.136860574,131.8619215,10.07,'11111222,11111222,11111222' 
TABS,ioos:station:wmo:42044:1,2010-07-04T03:30:00Z,26.1914,-97.0507,0.0,7.796948121,133.0253863,9.98,'11111222,11111222,11111222' 
TABS,ioos:station:wmo:42044:1,2010-07-04T04:00:00Z,26.1914,-97.0507,0.0,7.934179227,138.4747149,10.18,'11111222,11111222,11111222' 
TABS,ioos:station:wmo:42044:1,2010-07-04T04:30:00Z,26.1914,-97.0507,0.0,8.522769503,137.6633102,10.98,'11111222,11111222,11111222' 
TABS,ioos:station:wmo:42044:1,2010-07-04T05:00:00Z,26.1914,-97.0507,0.0,8.726110245,139.6482755,10.94,'11111222,11111222,11111222' 
TABS,ioos:station:wmo:42044:1,2010-07-04T05:30:00Z,26.1914,-97.0507,0.0,8.49608145,139.3916961,10.58,'11111222,11111222,11111222' 
TABS,ioos:station:wmo:42044:1,2010-07-04T06:00:00Z,26.1914,-97.0507,0.0,9.238062567,142.9195262,11.56,'11111222,11111222,11111222' 
TABS,ioos:station:wmo:42044:1,2010-07-04T06:30:00Z,26.1914,-97.0507,0.0,9.008934454,152.2121139,11.71,'11111222,11111222,11111222' 
TABS,ioos:station:wmo:42044:1,2010-07-04T07:00:00Z,26.1914,-97.0507,0.0,9.01073249,144.9874354,11.76,'11111222,11111222,11111222' 
TABS,ioos:station:wmo:42044:1,2010-07-04T07:30:00Z,26.1914,-97.0507,0.0,8.469450986,148.2243703,11.19,'11111222,11111222,11111222' 
TABS,ioos:station:wmo:42044:1,2010-07-04T08:00:00Z,26.1914,-97.0507,0.0,8.392615802,146.2723528,10.74,'11111222,11111222,11111222' 
TABS,ioos:station:wmo:42044:1,2010-07-04T08:30:00Z,26.1914,-97.0507,0.0,8.462133301,145.9346411,10.8,'11111222,11111222,11111222' 
TABS,ioos:station:wmo:42044:1,2010-07-04T09:00:00Z,26.1914,-97.0507,0.0,8.517476152,146.1049956,10.79,'11111222,11111222,11111222' 
TABS,ioos:station:wmo:42044:1,2010-07-04T09:30:00Z,26.1914,-97.0507,0.0,8.562785762,142.3541916,10.97,'11111222,11111222,11111222' 
TABS,ioos:station:wmo:42044:1,2010-07-04T10:00:00Z,26.1914,-97.0507,0.0,8.523056963,146.0491955,10.8,'11111222,11111222,11111222' 
TABS,ioos:station:wmo:42044:1,2010-07-04T10:30:00Z,26.1914,-97.0507,0.0,8.12480769,150.9114271,10.95,'11111222,11111222,11111222' 
TABS,ioos:station:wmo:42044:1,2010-07-04T11:00:00Z,26.1914,-97.0507,0.0,8.06357861,152.9267875,10.4,'11111222,11111222,11111222' 
TABS,ioos:station:wmo:42044:1,2010-07-04T11:30:00Z,26.1914,-97.0507,0.0,8.157266699,151.5187481,10.33,'11111222,11111222,11111222' 
TABS,ioos:station:wmo:42044:1,2010-07-04T12:00:00Z,26.1914,-97.0507,0.0,7.796165724,152.4163013,10.07,'11111222,11111222,11111222' 
TABS,ioos:station:wmo:42044:1,2010-07-04T12:30:00Z,26.1914,-97.0507,0.0,7.653757247,151.0910944,10.56,'11111222,11111222,11111222' 
TABS,ioos:station:wmo:42044:1,2010-07-04T13:00:00Z,26.1914,-97.0507,0.0,7.674561877,149.0237228,10.01,'11111222,11111222,11111222' 
TABS,ioos:station:wmo:42044:1,2010-07-04T13:30:00Z,26.1914,-97.0507,0.0,7.748296587,145.0385616,10.13,'11111222,11111222,11111222' 
TABS,ioos:station:wmo:42044:1,2010-07-04T14:00:00Z,26.1914,-97.0507,0.0,7.846234766,146.3304747,9.68,'11111222,11111222,11111222' 
TABS,ioos:station:wmo:42044:1,2010-07-04T14:30:00Z,26.1914,-97.0507,0.0,8.108939511,139.6519193,10.28,'11111222,11111222,11111222' 
TABS,ioos:station:wmo:42044:1,2010-07-04T15:00:00Z,26.1914,-97.0507,0.0,7.876426855,143.726904,10.1,'11111222,11111222,11111222' 
TABS,ioos:station:wmo:42044:1,2010-07-04T15:30:00Z,26.1914,-97.0507,0.0,8.487696979,139.8749381,10.98,'11111222,11111222,11111222' 
TABS,ioos:station:wmo:42044:1,2010-07-04T16:00:00Z,26.1914,-97.0507,0.0,8.118897708,140.4477316,10.18,'11111222,11111222,11111222' 
TABS,ioos:station:wmo:42044:1,2010-07-04T16:30:00Z,26.1914,-97.0507,0.0,8.107441027,133.2010442,10.6,'11111222,11111222,11111222' 
TABS,ioos:station:wmo:42044:1,2010-07-04T17:00:00Z,26.1914,-97.0507,0.0,7.752483473,138.765714,10.08,'11111222,11111222,11111222' 
TABS,ioos:station:wmo:42044:1,2010-07-04T17:30:00Z,26.1914,-97.0507,0.0,7.67609927,136.8479216,10.15,'11111222,11111222,11111222' 
TABS,ioos:station:wmo:42044:1,2010-07-04T18:00:00Z,26.1914,-97.0507,0.0,8.075171825,135.1006582,10.29,'11111222,11111222,11111222' 